Facebook Twitter

Wetterstation Büchel (Flugplatz)

Messwerte
  Temperatur Wetter Niederschlag Luftdruck Wind
Mi, 13:20 Uhr 20° - - 1020 hPa 8 km/h O
Mi, 13:00 Uhr 20° - - 1018.2 hPa 7 km/h N
Mi, 12:20 Uhr 19° - - 1020 hPa 3 km/h NO
Mi, 12:00 Uhr 18° - - 1018.8 hPa 4 km/h N
Mi, 11:20 Uhr 17° - - 1020 hPa 3 km/h
Mi, 11:00 Uhr 17° - - 1019.2 hPa 7 km/h SO
Mi, 10:20 Uhr 16° - - 1020 hPa 10 km/h SO
Mi, 10:00 Uhr 15° - - 1019.3 hPa 4 km/h O
Mi, 09:20 Uhr 14° - - 1020 hPa 3 km/h NO
Mi, 09:00 Uhr 13° - - 1019.5 hPa 4 km/h N
Mi, 08:20 Uhr 13° - - 1019 hPa 3 km/h SO
Mi, 08:00 Uhr 14° - - 1019.3 hPa 7 km/h O
Mi, 07:20 Uhr 14° - - 1019 hPa 8 km/h SO
Mi, 07:00 Uhr 13° - - 1019.5 hPa 4 km/h NW
Mi, 06:20 Uhr 14° - - 1019 hPa 2 km/h
Mi, 06:00 Uhr 14° - - 1019.1 hPa 4 km/h O
Mi, 05:20 Uhr 14° - - 1019 hPa 3 km/h O
Mi, 05:00 Uhr 13° - - 1019.2 hPa 4 km/h NO
Mi, 04:20 Uhr 13° - - 1019 hPa 2 km/h N
Mi, 04:00 Uhr 15° - - 1019.3 hPa 7 km/h NO

Alle Zeitangaben MESZ